RYR93G EGNM-LFMP

Flight info

Callsign RYR93G
Flight time N/A
Altitude 23000
Route NELSA DCT MCT DCT LISTO P18 STAFA L8 HON/N0461F350 UL612 WOD/N0463F370 UL612 RESMI UN857 DISAK DCT DIRMO DCT GUERE DCT BELPA DCT MAKIL DCT ORBIL
Aircraft B738/M-SDE2E3FGHIRWXY/LB1

Departure

Time 2026-05-04 18:41
Airport Leeds Bradford Airport (EGNM)

Arrival

Time N/A
Airport Perpignan-Rivesaltes (Llabanère) Airport (LFMP)
Time Latitude Longitude Altitude Speed Heading
2026-05-04 18:25 53.86880 -1.65696 664 ft 0 kts 359°
2026-05-04 18:28 53.86870 -1.65696 664 ft 3 kts
2026-05-04 18:28 53.86850 -1.65697 661 ft 2 kts
2026-05-04 18:28 53.86832 -1.65696 661 ft 3 kts 338°
2026-05-04 18:29 53.86819 -1.65680 663 ft 3 kts 289°
2026-05-04 18:29 53.86816 -1.65647 664 ft 3 kts 271°
2026-05-04 18:29 53.86816 -1.65636 664 ft 0 kts 271°
2026-05-04 18:37 53.86816 -1.65637 664 ft 1 kts 271°
2026-05-04 18:37 53.86816 -1.65662 664 ft 3 kts 271°
2026-05-04 18:38 53.86817 -1.65719 664 ft 6 kts 271°
2026-05-04 18:38 53.86816 -1.65806 664 ft 9 kts 265°
2026-05-04 18:38 53.86812 -1.65921 664 ft 11 kts 268°
2026-05-04 18:38 53.86814 -1.66058 664 ft 12 kts 281°
2026-05-04 18:39 53.86865 -1.66171 664 ft 12 kts 318°
2026-05-04 18:39 53.86928 -1.66263 664 ft 12 kts 319°
2026-05-04 18:39 53.86975 -1.66374 665 ft 11 kts 298°
2026-05-04 18:39 53.86994 -1.66499 665 ft 11 kts 254°
2026-05-04 18:40 53.86948 -1.66592 669 ft 8 kts 206°
2026-05-04 18:40 53.86927 -1.66579 669 ft 0 kts 137°
2026-05-04 18:40 53.86872 -1.66492 668 ft 44 kts 137°
2026-05-04 18:40 53.86431 -1.65818 667 ft 124 kts 139°
2026-05-04 18:41 53.85643 -1.64607 896 ft 169 kts 139°
2026-05-04 18:41 53.84776 -1.63236 1855 ft 174 kts 139°
2026-05-04 18:41 53.83828 -1.61810 2646 ft 190 kts 141°
2026-05-04 18:41 53.82755 -1.60406 3522 ft 197 kts 148°
2026-05-04 18:42 53.81516 -1.59439 4473 ft 200 kts 169°